Flag for Burkina Faso Weather past 2 weeks in Koudougou, Burkina Faso

Now
91 °F

Clear.


Feels Like: 87 °F
Forecast: 66 / 94 °F
Wind: 9 mph from East

Location: Ouagadougou Airport

Current Time: Dec 22, 2014 at 1:37:47 PM

Latest Report: Dec 22, 2014 at 1:00 PM


Visibility: 5 mi

Pressure: 29.95 "Hg

Humidity: 15%

Dew point: 37 °F

Location of KoudougouLocation

Historic Weather in Koudougou — Graph

°F

Koudougou temperature yesterday

Maximum temperature yesterday: 93 °F (at 2:00 PM)
Minimum temperature yesterday: 66 °F (at 6:00 AM)
Average temperature yesterday: 78 °F

Past Weeks' High & Low Weather Summary

 TemperatureHumidityPressure
High99 °F (Dec 7, 2:00 PM)52% (Dec 9, 4:00 AM)30.04 "Hg (Dec 9, 4:00 AM)
Low61 °F (Dec 12, 7:00 AM)9% (Dec 7, 12:00 PM)29.83 "Hg (Dec 8, 4:00 PM)
Average79 °F22%29.95 "Hg
* Reported Dec 7 12:00 Noon — Dec 22 12:00 Noon, Koudougou, Weather by CustomWeather, © 2014

Note: Actual official high and low records may vary slightly from our data, if they occured in-between our weather recording intervals... More about our weather records

Advertising

Koudougou weather history for previous 24 hours

 ConditionsComfort  
Time TempWeatherWind HumidityBarometerVisibility
12:00 PM
Dec 22
90 °FClear.13 mph15%29.98 "Hg4 mi
11:00 AM88 °FClear.13 mph16%29.98 "Hg4 mi
10:00 AM84 °FHaze.15 mph16%30.01 "Hg2 mi
9:00 AM79 °FHaze.12 mph23%30.01 "Hg2 mi
8:00 AM75 °FHaze.10 mph24%30.01 "Hg2 mi
7:00 AM68 °FClear.5 mph35%29.98 "Hg4 mi
6:00 AM66 °FClear.5 mph37%29.95 "Hg10 mi
5:00 AM68 °FClear.3 mph38%29.95 "Hg10 mi
4:00 AM68 °FClear.5 mph35%29.95 "Hg10 mi
3:00 AM70 °FClear.3 mph33%29.95 "Hg10 mi
2:00 AM70 °FClear.3 mph33%29.95 "Hg10 mi
1:00 AM72 °FClear.5 mph31%29.98 "Hg10 mi
12:00 AM73 °FClear.5 mph27%29.98 "Hg5 mi
11:00 PM
Dec 21
75 °FClear.3 mph25%29.98 "Hg5 mi
10:00 PM75 °FClear.3 mph27%29.98 "Hg5 mi
9:00 PM79 °FClear.No wind23%29.98 "Hg5 mi
8:00 PM79 °FClear.No wind23%29.98 "Hg5 mi
7:00 PM81 °FClear.No wind23%29.95 "Hg5 mi
6:00 PM86 °FClear.No wind19%29.92 "Hg5 mi
5:00 PM90 °FSunny.5 mph15%29.89 "Hg10 mi
4:00 PM93 °FPassing clouds.5 mph13%29.89 "HgN/A
3:00 PM93 °FPassing clouds.7 mph11%29.89 "HgN/A
2:00 PM93 °FPassing clouds.6 mph12%29.92 "HgN/A
1:00 PM91 °FPassing clouds.7 mph10%29.95 "HgN/A
Weather by CustomWeather, © 2014

See weather overviewHow to use our weather pages